Zurück zum Katalog

STARLINK-5241

AktivKommunikationVLEO
NORAD 54204·PAYLOAD·🇺🇸 United States

Gestartet Oct 28, 2022 von Vandenberg Space Force Base

Loading…

Nächste Überflüge (nächste 24 Stunden)

TLE

AktuellSource: CelesTrak SupGP

Epoche: Sep 14, 2026, 21:44 UTC

1 54204C 22141AZ  26257.90604167  .00013090  00000+0  37452-3 0  2573
2 54204  53.1582 214.0797 0001250  96.8222 328.5965 15.35391867    15

Verfolge STARLINK-5241 in Echtzeit mit AllMySat

Download on the App Store